Location: Unspecified
(0.0000°N, 0.0000°E)
Time: 09:13:07
(UTC+00:00)

Vanguard 2 Rocket - Pass Details

Date: 18 December 2018
Orbit: 554 x 3327 km, 32.9° (Epoch: 18 January)

Event Time Altitude Azimuth Distance (km) Brightness Sun altitude
Rises 10:33:20 0° 340° (NNW) 3,409 9.6 59.1°
Reaches altitude 10° 10:36:24 10° 0° (N) 2,801 9.3 59.6°
Maximum altitude 10:40:59 18° 42° (NE) 2,751 9.5 60.3°
Drops below altitude 10° 10:47:15 10° 81° (E) 4,041 10.5 61.2°
Sets 10:53:05 0° 97° (E) 5,661 11.2 62.0°
